KE5JJC Weather Reports


Display with metric or nautical units.
time (UTC)temp
F
wind
direction
speed
MPH
gust
MPH
rain 1hr
in
rain 24hr
in
rain mn
in
humidity
%
barometer
mb
20260504081519 57 345 0.0 1.0 0.00 0.00 0.00 45 1008.1
20260504050012 63 294 0.0 1.0 0.00 0.00 0.00 37 1008.6
20260504044559 64 293 0.0 5.0 0.00 0.00 0.00 36 1008.6
20260504044501 64 293 0.0 5.0 0.00 0.00 0.00 36 1008.6
20260504043048 64 270 0.0 1.0 0.00 0.00 0.00 36 1008.5
20260504041542 65 252 0.0 1.0 0.00 0.00 0.00 34 1008.5
20260504040041 65 300 0.0 2.0 0.00 0.00 0.00 34 1008.4
20260504034524 65 317 0.0 1.0 0.00 0.00 0.00 34 1008.3
20260504033011 66 294 0.0 4.0 0.00 0.00 0.00 33 1008.1
20260504031509 67 34 0.0 1.0 0.00 0.00 0.00 32 1008.0
20260504030043 68 269 0.0 2.0 0.00 0.00 0.00 31 1008.0
20260504024541 69 304 0.0 5.0 0.00 0.00 0.00 31 1007.9
20260504023031 70 314 0.0 4.0 0.00 0.00 0.00 30 1008.0
20260504021533 71 49 0.0 1.0 0.00 0.00 0.00 29 1007.9
20260504020011 72 163 0.0 6.0 0.00 0.00 0.00 29 1008.0
20260504014607 73 56 0.0 6.0 0.00 0.00 0.00 26 1007.9
20260504014505 73 199 1.0 6.0 0.00 0.00 0.00 27 1007.9
20260504013100 73 311 0.0 4.0 0.00 0.00 0.00 26 1008.0
20260504011549 74 141 0.0 4.0 0.00 0.00 0.00 25 1008.1
20260504010035 75 241 0.0 6.0 0.00 0.00 0.00 26 1008.2
20260504004543 76 40 0.0 4.0 0.00 0.00 0.00 25 1008.3
20260504003028 77 202 0.0 7.0 0.00 0.00 0.00 23 1008.3
20260504001531 77 214 1.0 7.0 0.00 0.00 0.00 22 1008.5
20260504000025 77 30 0.0 5.0 0.00 0.00 0.00 22 1008.6
20260503234515 78 201 1.0 9.0 0.00 0.00 0.00 23 1008.6
20260503233059 78 209 1.0 6.0 0.00 0.00 0.00 21 1008.7
20260503233001 78 257 1.0 6.0 0.00 0.00 0.00 21 1008.8
20260503231551 78 290 1.0 7.0 0.00 0.00 0.00 23 1009.0
20260503230049 77 305 1.0 7.0 0.00 0.00 0.00 23 1009.2
20260503224546 78 123 1.0 5.0 0.00 0.00 0.00 21 1009.5
20260503223029 78 284 0.0 5.0 0.00 0.00 0.00 23 1009.7
20260503221517 78 279 1.0 8.0 0.00 0.00 0.00 23 1009.9
20260503220009 79 194 0.0 7.0 0.00 0.00 0.00 23 1010.1
20260503214505 78 260 0.0 9.0 0.00 0.00 0.00 24 1010.3
20260503213047 78 123 0.0 6.0 0.00 0.00 0.00 24 1010.6
20260503211544 78 167 2.0 10.0 0.00 0.00 0.00 23 1010.7
20260503210025 79 189 1.0 11.0 0.00 0.00 0.00 24 1010.9
20260503204555 78 269 1.0 6.0 0.00 0.00 0.00 26 1011.0
20260503203038 77 300 3.0 10.0 0.00 0.00 0.00 27 1011.1
20260503201541 76 64 2.0 5.0 0.00 0.00 0.00 24 1011.5
20260503200022 75 197 4.0 7.0 0.00 0.00 0.00 26 1011.6
20260503194514 75 100 0.0 5.0 0.00 0.00 0.00 27 1011.9
20260503193008 75 186 0.0 7.0 0.00 0.00 0.00 27 1012.1
20260503191606 74 188 1.0 5.0 0.00 0.00 0.00 27 1012.4
20260503190044 72 10 1.0 7.0 0.00 0.00 0.00 29 1012.6
20260503184530 72 108 0.0 4.0 0.00 0.00 0.00 28 1012.8
20260503183020 72 311 0.0 5.0 0.00 0.00 0.00 30 1013.1
20260503181518 71 348 0.0 7.0 0.00 0.00 0.00 30 1013.2
20260503180016 69 153 0.0 4.0 0.00 0.00 0.00 32 1013.3
20260503174558 67 50 0.0 9.0 0.00 0.00 0.00 39 1013.5
20260503174501 67 61 0.0 9.0 0.00 0.00 0.00 38 1013.5
20260503173056 65 62 0.0 4.0 0.00 0.00 0.00 45 1013.6
20260503171543 63 48 0.0 4.0 0.00 0.00 0.00 45 1013.7